Regional Weather Roundup
Issued by NWS Charleston, SC

Home | Current Version | Previous Version | Text Only | Print | Product List | Glossary On
Versions: 1 2 3 4 5 6 7 8 9 10 11 12 13 14 15 16 17 18 19 20 21 22 23 24 25 26 27 28 29 30 31 32 33 34 35 36 37 38 39 40 41 42 43 44 45 46 47 48 49 50
000
ASUS42 KCHS 110928
RWRCHS

REGIONAL WEATHER ROUNDUP
NATIONAL WEATHER SERVICE CHARLESTON SC
400 AM EST THU FEB 11 2016

NOTE: "FAIR" INDICATES FEW OR NO CLOUDS BELOW 12,000 FEET WITH NO
SIGNIFICANT WEATHER AND/OR OBSTRUCTIONS TO VISIBILITY.

NOT ALL STATIONS ARE QUALITY CONTROLLED BY THE NATIONAL
WEATHER SERVICE. USE DATA WITH CAUTION...ESPECIALLY
DEWPOINT OBSERVATIONS.

SCZ027-030-031-034>040-042>050-111000-
...SOUTHEAST SOUTH CAROLINA...

CITY           SKY/WX    TMP DP  RH WIND       PRES   REMARKS
N CHARLESTON   CLEAR     31  16  54 W5        30.18S WCI  26
WATERFRONT PRK   N/A     34  19  54 W6        30.02F WCI  29
MOUNT PLEASANT FAIR      34  18  51 NW5       30.18S WCI  30
JOHNS ISLAND   FAIR      32  18  55 W6        30.19R WCI  26
PINOPOLIS        N/A     34  18  51 W9        30.08F WCI  26
MONCKS CORNER  FAIR      27  14  59 CALM      30.18S
SUMMERVILLE    FAIR      30  21  69 SW3       30.19R
BEAUFORT MCAS  CLEAR     32  19  58 W6        30.20S WCI  26
BEAUFORT ARPT  FAIR      34  19  55 SW5       30.20R WCI  30
HILTON HEAD IS CLEAR     34  21  60 SW3       30.23R
WALTERBORO     SUNNY     30  21  69 W3        30.19S
ALLENDALE      FAIR      30  21  69 CALM      30.19R

...SOUTHERN MIDLANDS AND PEE DEE...

CITY           SKY/WX    TMP DP  RH WIND       PRES   REMARKS
GEORGETOWN     FAIR      30  18  59 W5        30.18S WCI  25
KINGSTREE      FAIR      27  19  74 CALM      30.17S
ORANGEBURG     CLEAR     30  14  51 W3        30.17R
BARNWELL       FAIR      32  18  55 CALM      30.18S
AIKEN          FAIR      30  14  51 W5        30.19R WCI  25
MANNING        FAIR      30  16  55 CALM      30.17R
COLUMBIA       CLEAR     30  13  49 W7        30.15F WCI  23
SUMTER         CLEAR     28  13  54 W3        30.13S
FLORENCE       CLEAR     27  14  58 W3        30.16R
MYRTLE BEACH   CLEAR     30  12  47 W6        30.18S WCI  24
N MYRTLE BEACH CLEAR     30  16  56 W6        30.15R WCI  24

$$

GAZ063-065-086>088-099>101-113>116-118-119-134>141-150-111000-
...SOUTHEAST GEORGIA...

CITY           SKY/WX    TMP DP  RH WIND       PRES   REMARKS
SAVANNAH ARPT  CLEAR     31  20  63 W8        30.23R WCI  23
HUNTER AAF     CLEAR     31  20  63 W7        30.20R WCI  25
FORT STEWART   PTCLDY    31  20  64 CALM      30.20R
STATESBORO     CLEAR     32  21  64 CALM      30.21R
SYLVANIA       SUNNY     29  25  88 CALM      30.21R
CLAXTON        FAIR      29  26  85 CALM      30.23R

...CSRA...CENTRAL AND FAR SOUTHEAST GEORGIA...

CITY           SKY/WX    TMP DP  RH WIND       PRES   REMARKS
THOMSON        CLEAR     30  20  67 W3        30.21S
AUGUSTA-BUSH   PTCLDY    30  13  49 CALM      30.19R
AUGUSTA-DANIEL NOT AVBL
SWAINSBORO     FAIR      30  23  74 CALM      30.21R
VIDALIA        CLEAR     32  23  69 W3        30.22R
EASTMAN        FAIR      30  22  73 CALM      30.24S
HAZLEHURST     FAIR      33  22  64 CALM      30.21S
ALMA           PTCLDY    28  25  88 S3        30.23S
WAYCROSS       CLEAR     32  29  87 CALM      30.24S
JESUP          FAIR      32  27  80 CALM      30.24S
BAXLEY         FAIR      32  28  86 S3        30.22S
BRUNSWICK      CLEAR     34  27  75 CALM      30.26R
SAINT SIMONS   CLEAR     36  23  59 W7        30.25R WCI  30

$$

SCZ027-028-034-036>038-045-046-048>050-GAZ119-141-111000-
...LAKE AND SUPPLEMENTAL COASTAL OBSERVATIONS...

STATION/POSITION TIME  TEMP    WIND        PRES    WAVE   SWELL
                       AIR SEA DIR/SP/G            HT/PER HT/PER/DIR
                 (UTC) (F)     (DEG/KT/KT) (MB)    (FT/S) (FT/S/D)
WINYAH BAY       0800   33     280/  6     1020.0S
LAKE MURRAY      0800   33     280/ 11/ 14 1020.3R
ACE BASIN NERRS  0800   34     290/  2     1022.0S
FORT PULASKI     0900   36 49  250/  7/ 10 1023.5R
SAPELO ISLAND    0900   38     250/  6     1024.0R

$$

ANZ835-935-AMZ111-154-330-350-352-354-370-450-454-472-111000-
...C-MAN AND BUOY OBSERVATIONS...

STATION/POSITION TIME  TEMP    WIND        PRES    WAVE   SWELL
                       AIR SEA DIR/SP/G            HT/PER HT/PER/DIR
                 (UTC) (F)     (DEG/KT/KT) (MB)    (FT/S) (FT/S/D)
BUOY 41004       0850   44 63  300/ 29/ 35 1020.0F   8/ 7   2/14
BUOY 41008       0850   44 52  290/ 16/ 19 1024.0R   3/ 3
FOLLY BEACH CMAN 0900   33     280/  4/  7 1022.1F
CAPERS NEARSHORE 0808   38     290/ 17/ 23 1021.7R
FRIPP NEARSHORE  0800   40     320/ 16/ 17 1021.6F


STATION/POSITION TIME  TEMP    WIND        PRES    WAVE   SWELL
                       AIR SEA DIR/SP/G            HT/PER HT/PER/DIR
                 (UTC) (F)     (DEG/KT/KT) (MB)    (FT/S) (FT/S/D)
5E ST. MARYS GA  0821      55                N/A     2/15   2/ 90/15
FRYING PAN BUOY  0900   41 59  290/ 19/ 27 1020.4R
BUOY 41025       0850   36 71  310/ 23/ 31 1017.4R   8/ 7   2/ 70/13
CAPE LOOKOUT NC  NOT AVBL
BUOY 41002       0850   54 68  290/ 27/ 33   N/A    14/10
BUOY 41010       0820   60 72              1022.0R
ST AUGUSTINE FL  0900   36 54  240/  6/  6 1026.1R


$$



USA.gov is the U.S. government's official web portal to all federal, state and local government web resources and services.